Weather History for 08533 - December, 2013

Change the Weather History Date:

Friday, December 20, 2013

  Actual Average Record
Temperature  
Mean Temperature 52 °F -  
Max Temperature 58 °F - - ()
Min Temperature 44 °F - - ()
Degree Days  
Heating Degree Days 12    
Growing Degree Days 2 (Base 50)    
Moisture  
Dew Point 39 °F    
Average Humidity 51    
Maximum Humidity 76    
Minimum Humidity 34    
Precipitation  
Precipitation 0.00 in - - ()
Sea Level Pressure  
Sea Level Pressure 30.46 in    
Wind  
Wind Speed 12 mph ()    
Max Wind Speed 18 mph    
Max Gust Speed -    
T = Trace of Precipitation, MM = Missing Value Source: Averaged Metar Reports

Daily Weather History Graph

Daily Weather History Graph

Search for Another Location

Airport or City:

Trip Planner

Search our weather history database for the weather conditions in past years. The results will help you decide how hot, cold, wet, or windy it might be!

Date:

Astronomy

Dec. 20, 2013 Rise Set
Actual Time 7:44 AM WET 5:22 PM WET
Civil Twilight 7:15 AM WET 5:51 PM WET
Nautical Twilight 6:43 AM WET 6:23 PM WET
Astronomical Twilight 6:11 AM WET 6:55 PM WET
Moon 8:26 PM WET (12/20) 9:34 AM WET (12/20)
Length of Visible Light 10h 35m
Length of Day
9h 37m
Waning Gibbous, 92% of the Moon is Illuminated
Dec 20
Waning Gibbous
Dec 25
Last Quarter
Jan 1
New
Jan 8
First Quarter
Jan 16
Full

Hourly Weather History & Observations

Time (WET) Temp. Dew Point Humidity Pressure Visibility Wind Dir Wind Speed Gust Speed Precip Events Conditions
12:00 AM 52 °F 47 °F 76% 30.40 in - North 17.9 mph - -  
1:00 AM 53 °F 42 °F 56% 30.40 in - North 15.7 mph - -  
2:00 AM 54 °F 39 °F 45% 30.40 in - North 15.7 mph - -  
3:00 AM 54 °F 38 °F 44% 30.42 in - NNE 15.7 mph - -  
4:00 AM 52 °F 41 °F 56% 30.43 in - ENE 8.9 mph - -  
5:00 AM 49 °F 41 °F 65% 30.43 in - ENE 6.7 mph - -  
6:00 AM 47 °F 40 °F 68% 30.46 in - ENE 8.9 mph - -  
7:00 AM 48 °F 40 °F 65% 30.48 in - NE 11.2 mph - -  
8:00 AM 50 °F 42 °F 66% 30.49 in - NNE 11.2 mph - -  
9:00 AM 51 °F 39 °F 54% 30.51 in - NE 11.2 mph - -  
10:00 AM 54 °F 39 °F 46% 30.50 in - NNE 17.9 mph - -  
11:00 AM 56 °F 35 °F 34% 30.50 in - NNE 17.9 mph - -  
12:00 PM 57 °F 37 °F 36% 30.49 in - North 15.7 mph - -  
1:00 PM 58 °F 38 °F 35% 30.47 in - NNE 17.9 mph - -  
2:00 PM 58 °F 38 °F 36% 30.46 in - NNE 15.7 mph - -  
3:00 PM 58 °F 38 °F 35% 30.44 in - North 17.9 mph - -  
4:00 PM 57 °F 39 °F 39% 30.45 in - North 17.9 mph - -  
5:00 PM 55 °F 38 °F 41% 30.45 in - NNE 15.7 mph - -  
6:00 PM 53 °F 38 °F 46% 30.46 in - NNE 11.2 mph - -  
7:00 PM 49 °F 37 °F 54% 30.47 in - ENE 6.7 mph - -  
8:00 PM 48 °F 36 °F 54% 30.49 in - NE 8.9 mph - -  
9:00 PM 49 °F 36 °F 51% 30.50 in - NE 6.7 mph - -  
10:00 PM 47 °F 36 °F 54% 30.51 in - NNE 6.7 mph - -  
11:00 PM 44 °F 35 °F 62% 30.51 in - ENE 4.5 mph - -